Погода в Мелихове

Россия / Белгородская область     50°41′39″N   36°47′38″E
темп.,
°C
ветер,
м/с
пор.,
м/с
влажн.,
%
обл.,
%
осадки,
мм/ч
давл.,
гПа
погр.,
м
8 мая, сб
сб800:00+10ююв61568100 0.0 1013382
03:00+11ююв71764100 0.0 1012645
06:00+10ююв61479100 0.5 1010475
09:00+12ююв81680100 0.7 1008839
12:00+11ю91693100 2.5 1007866
15:00+12ююз71295100 6.4 1007831
18:00+12з6986100 0.3 1008838
21:00+7зсз71488100 0.4 1011759
9 мая, вс
вс900:00+6зсз61188100 0.0 1013947
03:00+6сз61083100 0.1 10141046
06:00+5сз61084100 0.0 1016883
09:00+7ссз7107282 0.0 1018961
12:00+11ссз81052100 0.0 10181930
15:00+11ссз7958100 0.1 10201782
18:00+10ссз610625 0.1 10221619
21:00+6ссз37785 0.2 1025127
10 мая, пн
пн1000:00+4ссз37811 0.0 1026132
03:00+3ссз39832 0.0 1028169
06:00+4с512770 0.0 1028285
09:00+10с710580 0.0 10281290
12:00+13ссв811475 0.0 10271767
15:00+14ссв9124876 0.0 10261855
18:00+13ссв81359100 0.0 10251502
21:00+11ссв81459100 0.0 10251029
11 мая, вт
вт1100:00+10ссв81658100 0.0 1024738
03:00+10ссв81660100 0.0 1024602
06:00+8ссв81767100 0.0 1023503
09:00+11св81770100 0.0 1023730
12:00+11всв81485100 0.0 1023806
15:00+12всв71077100 0.1 10241114
18:00+14св587517 0.0 1024993
21:00+12всв3686100 0.1 1023147
12 мая, ср
ср1200:00+10вюв2596100 2.6 1023201
03:00+9вюв239485 2.8 1022144
06:00+7вюв249099 0.0 1022105
09:00+11всв347954 0.0 1021572
12:00+16в465842 0.1 10201675
15:00+15всв5767100 0.3 1020873
18:00+14всв477698 0.1 1019353
21:00+11всв4108648 0.2 1018185